Home > Weather > Washington DC > Past weeks

Flag for USA Past Weather in Washington DC, USA — Yesterday and Last 2 Weeks

Now
80 °F

Overcast.


Feels Like: 83 °F
Forecast: 67 / 89 °F
Wind: 10 mph from South

Location: Reagan National Airport

Current Time: Aug 25, 2016 at 11:10:05 AM

Latest Report: Aug 25, 2016 at 9:52 AM


Visibility: 10 mi

Pressure: 30.11 "Hg

Humidity: 69%

Dew Point: 69 °F

Location of Washington DCLocation

Past Weather in Washington DC — Graph

°F

Washington DC Temperature Yesterday

Maximum temperature yesterday: 86 °F (at 4:52 PM)
Minimum temperature yesterday: 68 °F (at 4:52 AM)
Average temperature yesterday: 77 °F

High & Low Weather Summary for the Past Weeks

 TemperatureHumidityPressure
High100 °F (Aug 13, 4:52 PM)94% (Aug 15, 8:56 PM)30.35 "Hg (Aug 15, 8:56 PM)
Low67 °F (Aug 23, 6:52 AM)35% (Aug 20, 5:52 PM)29.74 "Hg (Aug 21, 2:52 PM)
Average83 °F65%30.05 "Hg
* Reported Aug 10 10:00 AM — Aug 25 9:52 AM, Washington DC, Weather by CustomWeather, © 2016

Note: Actual official high and low records may vary slightly from our data, if they occured in-between our weather recording intervals... More about our weather records

Advertising

Washington DC Weather History for the Previous 24 Hours

Scroll right to see more
 ConditionsComfort  
Time TempWeatherWind HumidityBarometerVisibility
9:52 AM
Thu, Aug 25
80 °FOvercast.10 mph69%30.11 "Hg10 mi
8:52 AM76 °FOvercast.9 mph74%30.11 "Hg10 mi
7:52 AM73 °FOvercast.9 mph79%30.12 "Hg10 mi
6:52 AM71 °FPassing clouds.10 mph84%30.12 "Hg10 mi
5:52 AM71 °FPassing clouds.12 mph84%30.12 "Hg10 mi
4:52 AM72 °FClear.10 mph78%30.13 "Hg10 mi
3:52 AM72 °FClear.9 mph76%30.14 "Hg10 mi
2:52 AM72 °FClear.10 mph73%30.14 "Hg10 mi
1:52 AM72 °FPassing clouds.9 mph76%30.16 "Hg10 mi
11:52 PM
Wed, Aug 24
74 °FClear.10 mph69%30.19 "Hg10 mi
10:52 PM76 °FClear.13 mph62%30.19 "Hg10 mi
9:52 PM77 °FPassing clouds.10 mph60%30.19 "Hg10 mi
8:52 PM78 °FPassing clouds.13 mph64%30.19 "Hg10 mi
7:52 PM81 °FBroken clouds.12 mph60%30.17 "Hg10 mi
6:52 PM83 °FBroken clouds.12 mph57%30.17 "Hg10 mi
5:52 PM83 °FBroken clouds.9 mph57%30.18 "Hg10 mi
4:52 PM86 °FPartly sunny.13 mph51%30.19 "Hg10 mi
3:52 PM84 °FBroken clouds.10 mph53%30.20 "Hg10 mi
2:52 PM85 °FPartly sunny.13 mph51%30.23 "Hg10 mi
1:52 PM84 °FScattered clouds.12 mph53%30.25 "Hg10 mi
12:52 PM83 °FPartly sunny.12 mph53%30.26 "Hg10 mi
11:52 AM82 °FScattered clouds.12 mph51%30.29 "Hg10 mi
Weather by CustomWeather, © 2016

See weather overviewHow to use our weather pages